Regional Weather Roundup
Issued by NWS

Home | Current Version | Previous Version | Text Only | Print | Product List | Glossary On
Versions: 1 2 3 4 5 6 7 8 9 10 11 12 13 14 15 16 17 18 19 20 21 22 23 24 25 26 27 28 29 30 31 32 33 34 35 36 37 38 39 40 41 42 43 44 45 46 47 48 49 50
000
ASUS43 KLMK 051410
RWRKY
KENTUCKY REGIONAL WEATHER ROUNDUP
NATIONAL WEATHER SERVICE LOUISVILLE KY
1000 AM EDT SAT SEP 05 2015

NOTE "FAIR" INDICATES FEW OR NO CLOUDS BELOW 12,000 FEET
WITH NO SIGNIFICANT WEATHER AND/OR OBSTRUCTIONS TO VISIBILITY.

KYZ001>023-026-027-061>063-070>075-051500-
WESTERN AND SOUTH CENTRAL KENTUCKY

CITY           SKY/WX    TMP DP  RH WIND       PRES   REMARKS
PADUCAH        SUNNY     80  71  74 SE5       30.10R HAZE
HENDERSON      SUNNY     77  66  69 SE3       30.11S
OWENSBORO      SUNNY     80  69  69 SE3       30.12S
HOPKINSVILLE   SUNNY     78  69  74 E3        30.11R
BOWLING GREEN  SUNNY     78  69  73 E3        30.12R
GLASGOW        SUNNY     78  68  71 NE5       30.13S
$$

KYZ024-025-028>034-038-045-046-053-051500-
NORTH CENTRAL KENTUCKY

CITY           SKY/WX    TMP DP  RH WIND       PRES   REMARKS
LOUISVILLE/SDF MOSUNNY   79  65  62 E6        30.13S
LOUISVILLE/LOU SUNNY     78  66  66 CALM      30.15R
FORT KNOX      SUNNY     77  65  65 E3        30.12S
$$

KYZ035>037-039>044-047>052-055>060-089>105-051500-
NORTHEAST KENTUCKY

CITY           SKY/WX    TMP DP  RH WIND       PRES   REMARKS
LEXINGTON      SUNNY     79  65  62 E5        30.15F
COVINGTON      MOSUNNY   76  65  68 E5        30.16S
FRANKFORT      SUNNY     76  64  66 CALM      30.14S
$$

KYZ054-064>069-076>088-106>120-051500-
SOUTHEAST KENTUCKY

CITY           SKY/WX    TMP DP  RH WIND       PRES   REMARKS
JACKSON        SUNNY     74  67  78 CALM      30.18S
LONDON         SUNNY     78  65  63 CALM      30.17S
SOMERSET       SUNNY     75  66  73 SE3       30.17R
MIDDLESBORO    SUNNY     73  65  74 CALM      30.18S
MONTICELLO     SUNNY     78  71  79 CALM      30.18R
$$



USA.gov is the U.S. government's official web portal to all federal, state and local government web resources and services.